User: anonymous   Login
Location: The D'Auria's Ocala Star Observatory
(29.0276°N, 82.1742°W)
Time: 16:25:58
(UTC-05:00)
Language:

Abrixas rocket - Orbit

View from above orbital plane
View from above orbital plane
View from above satellite
View from above satellite

Ground track
Ground track

The orbit data is extracted from the following two-line orbital elements,

1 25723U 99022C   14330.46718029  .00017607  00000-0  52590-3 0  8106
2 25723 048.4232 044.2864 0016879 269.5964 161.7390 15.34445029862048
Epoch (UTC): 26 November 2014 11:12:44
Eccentricity: 0.0016879
inclination: 48.4232°
perigee height: 451 km
apogee height: 474 km
right ascension of ascending node: 44.2864°
argument of perigee: 269.5964°
revolutions per day: 15.34445029
mean anomaly at epoch: 161.7390°
orbit number at epoch: 86204

The dashed part of the orbit path shows where the satellite is in the earth's shadow,  

DLR